Cooktown Observation History
Time Wind Speed Temp Pressure Rel. Hum Rain
25/01:30pm ESE 11-15 kts 29.4°c 1006.5 hPa 65% 0.0mm
25/01:00pm E 11-17 kts 29.1°c 1006.7 hPa 66% 0.0mm
25/12:30pm ESE 10-14 kts 28.8°c 1007.1 hPa 67% 0.0mm
25/12:00pm ESE 10-14 kts 29.1°c 1007.4 hPa 64% 0.0mm
25/11:30am E 11-14 kts 29.8°c 1007.6 hPa 65% 0.0mm
25/11:00am E 10-17 kts 29.0°c 1007.8 hPa 66% 0.0mm
25/10:30am ESE 8-14 kts 28.7°c 1007.9 hPa 67% 0.0mm
25/10:00am ESE 9-12 kts 28.9°c 1007.9 hPa 67% 0.0mm
25/09:30am ESE 9-12 kts 28.7°c 1007.8 hPa 68% 0.0mm
25/09:00am SE 11-17 kts 27.9°c 1007.6 hPa 72% 0.0mm
25/08:30am SE 10-15 kts 27.9°c 1007.4 hPa 73% 0.0mm
25/08:00am ESE 7-12 kts 27.6°c 1007.4 hPa 75% 0.0mm
25/07:30am SSE 4-6 kts 26.4°c 1007.1 hPa 83% 0.0mm
25/07:00am SSE 5-7 kts 24.4°c 1007.2 hPa 90% 0.0mm
25/06:30am S 3-5 kts 23.6°c 1006.8 hPa 94% 0.0mm
25/06:00am CALM 0 kts 23.2°c 1006.8 hPa 93% 0.0mm
25/05:30am CALM 0 kts 23.6°c 1006.9 hPa 93% 0.0mm
25/05:00am CALM 0 kts 23.6°c 1006.7 hPa 93% 0.0mm
25/04:30am CALM 0 kts 23.9°c 1006.7 hPa 93% 0.0mm
25/04:00am WNW 3 kts 23.6°c 1006.8 hPa 93% 0.0mm
25/03:30am WNW 4-5 kts 23.5°c 1006.5 hPa 93% 0.0mm
25/03:00am NW 3-5 kts 23.6°c 1006.6 hPa 92% 0.0mm
25/02:30am NW 3-4 kts 24.0°c 1006.8 hPa 90% 0.0mm
25/02:00am NW 2-4 kts 23.9°c 1007.2 hPa 90% 0.0mm
25/01:30am CALM 0-3 kts 24.0°c 1007.4 hPa 89% 0.0mm
25/01:00am SE 2-4 kts 24.3°c 1007.7 hPa 85% 0.0mm
25/12:30am SE 4-6 kts 25.7°c 1008.1 hPa 81% 0.0mm
25/12:00am SE 4-6 kts 25.7°c 1008.4 hPa 81% 0.0mm
Time Wind Speed Temp Pressure Rel. Hum Rain
24/11:30pm SE 5-7 kts 26.0°c 1008.8 hPa 79% 0.0mm
24/11:00pm SE 5-7 kts 26.4°c 1009.1 hPa 79% 0.0mm
24/10:30pm SE 7-9 kts 26.8°c 1009.0 hPa 77% 0.0mm
24/10:00pm ESE 6-8 kts 26.7°c 1008.9 hPa 78% 0.0mm
24/09:30pm SE 8-14 kts 27.3°c 1008.7 hPa 75% 0.0mm
24/09:00pm SE 7-9 kts 27.2°c 1008.2 hPa 78% 0.0mm
24/08:30pm ESE 6-9 kts 27.1°c 1008.1 hPa 78% 0.0mm
24/08:00pm SE 6-10 kts 26.9°c 1007.9 hPa 78% 0.0mm
24/07:30pm SE 8-14 kts 27.1°c 1007.6 hPa 76% 0.0mm
24/07:00pm ESE 10-15 kts 27.2°c 1007.2 hPa 76% 0.0mm
24/06:30pm ESE 9-13 kts 27.7°c 1006.8 hPa 74% 0.0mm
24/06:00pm SE 9-15 kts 28.2°c 1006.3 hPa 69% 0.0mm
24/05:30pm ESE 12-17 kts 28.5°c 1006.0 hPa 71% 0.0mm
24/05:00pm SE 11-16 kts 28.9°c 1005.8 hPa 69% 0.0mm
24/04:30pm SE 13-19 kts 29.2°c 1005.7 hPa 70% 0.0mm
24/04:00pm SE 10-15 kts 29.7°c 1005.9 hPa 67% 0.0mm
24/03:30pm ESE 11-16 kts 29.7°c 1006.1 hPa 69% 0.0mm
24/03:00pm ESE 13-20 kts 29.5°c 1006.3 hPa 66% 0.0mm
24/02:30pm ESE 15-20 kts 29.1°c 1006.7 hPa 70% 0.0mm
24/02:00pm SE 11-16 kts 28.8°c 1007.0 hPa 71% 0.0mm
24/01:30pm ESE 10-18 kts 28.9°c 1007.1 hPa 71% 0.0mm
24/01:00pm ESE 12-18 kts 29.0°c 1007.2 hPa 68% 0.0mm
24/12:30pm ESE 13-19 kts 29.0°c 1007.5 hPa 69% 0.0mm
24/12:00pm SE 11-18 kts 28.2°c 1007.9 hPa 74% 0.0mm
24/11:30am SE 12-17 kts 29.2°c 1008.1 hPa 70% 0.0mm
24/11:00am SE 11-17 kts 28.9°c 1008.6 hPa 69% 0.0mm
24/10:30am SE 11-15 kts 28.6°c 1008.9 hPa 68% 0.0mm
24/10:00am SE 10-14 kts 29.5°c 1009.0 hPa 69% 0.0mm
24/09:30am SE 10-14 kts 29.1°c 1009.1 hPa 73% 0.0mm
24/09:00am SE 9-14 kts 27.8°c 1009.0 hPa 78% 0.0mm
24/08:30am ESE 7-12 kts 27.4°c 1008.8 hPa 80% 0.0mm
24/08:00am SE 6-10 kts 26.8°c 1008.5 hPa 80% 0.0mm
24/07:30am SE 7-11 kts 26.4°c 1008.4 hPa 82% 0.0mm
24/07:00am SE 2-7 kts 25.5°c 1008.1 hPa 87% 0.0mm
24/06:30am SSE 3-5 kts 25.3°c 1007.7 hPa 86% 0.0mm
24/06:00am SE 4-6 kts 25.1°c 1007.3 hPa 88% 0.0mm
24/05:30am SSE 4-5 kts 23.8°c 1007.0 hPa 92% 0.0mm
24/05:00am CALM 0 kts 23.3°c 1007.1 hPa 91% 0.0mm
24/04:30am WNW 2-5 kts 23.5°c 1007.1 hPa 90% 0.0mm
24/04:00am WSW 2-4 kts 23.7°c 1007.2 hPa 88% 0.0mm
24/03:30am CALM 0 kts 24.3°c 1007.2 hPa 85% 0.0mm
24/03:00am SSE 4-6 kts 25.2°c 1007.4 hPa 81% 0.0mm
24/02:30am SSE 5-7 kts 25.6°c 1007.8 hPa 79% 0.0mm
24/02:00am SE 6-8 kts 26.0°c 1008.1 hPa 76% 0.0mm
24/01:30am SE 7-11 kts 26.5°c 1008.6 hPa 75% 0.0mm
24/01:00am SE 8-12 kts 26.8°c 1009.0 hPa 75% 0.0mm
24/12:30am SE 9-15 kts 26.9°c 1009.6 hPa 75% 0.0mm
24/12:00am SE 6-11 kts 26.5°c 1010.0 hPa 80% 0.0mm
Time Wind Speed Temp Pressure Rel. Hum Rain
23/11:30pm ESE 6-9 kts 26.3°c 1010.4 hPa 80% 0.0mm
23/11:00pm SE 6-10 kts 26.3°c 1010.4 hPa 80% 0.0mm
23/10:30pm SE 6-8 kts 26.2°c 1010.1 hPa 79% 0.0mm
23/10:00pm SE 6-9 kts 26.1°c 1009.7 hPa 79% 0.0mm
23/09:30pm SSE 6-8 kts 26.1°c 1009.5 hPa 78% 0.0mm
23/09:00pm SE 7-11 kts 26.2°c 1009.2 hPa 77% 0.0mm
23/08:30pm SE 7-10 kts 26.3°c 1008.9 hPa 76% 0.0mm
23/08:00pm SE 6-9 kts 26.4°c 1008.9 hPa 75% 0.0mm
23/07:30pm SE 7-11 kts 26.6°c 1008.8 hPa 74% 0.0mm
23/07:00pm SE 9-15 kts 27.0°c 1008.4 hPa 71% 0.0mm
23/06:30pm SE 10-14 kts 27.3°c 1008.2 hPa 69% 0.0mm
23/06:00pm SE 12-18 kts 28.1°c 1007.9 hPa 65% 0.0mm
23/05:30pm ESE 12-20 kts 28.5°c 1007.5 hPa 64% 0.0mm
23/05:00pm SE 13-19 kts 28.7°c 1007.1 hPa 62% 0.0mm
23/04:30pm ESE 14-22 kts 29.1°c 1006.7 hPa 64% 0.0mm
23/04:00pm SE 12-19 kts 29.4°c 1006.7 hPa 64% 0.0mm
23/03:30pm SE 14-23 kts 29.4°c 1006.7 hPa 64% 0.0mm
23/03:00pm ESE 16-23 kts 29.4°c 1007.1 hPa 63% 0.0mm
23/02:30pm SE 14-20 kts 29.4°c 1007.2 hPa 67% 0.0mm
23/02:00pm SE 13-22 kts 29.4°c 1007.4 hPa 64% 0.0mm
23/01:30pm SE 13-18 kts 29.5°c 1007.3 hPa 65% 0.0mm
23/01:00pm ESE 14-21 kts 29.5°c 1007.6 hPa 63% 0.0mm
23/12:30pm SE 12-18 kts 29.4°c 1007.9 hPa 67% 0.0mm
23/12:00pm ESE 14-19 kts 29.4°c 1008.1 hPa 64% 0.0mm
23/11:30am SE 11-17 kts 29.3°c 1008.3 hPa 66% 0.0mm
23/11:00am ESE 13-20 kts 29.9°c 1008.6 hPa 67% 0.0mm
23/10:30am SE 14-20 kts 29.0°c 1009.2 hPa 68% 0.0mm
23/10:00am ESE 11-16 kts 28.4°c 1009.5 hPa 72% 0.0mm
23/09:30am ESE 11-17 kts 29.1°c 1009.4 hPa 69% 0.0mm
23/09:00am SE 9-14 kts 28.6°c 1009.1 hPa 68% 0.2mm
23/08:30am SE 10-15 kts 28.0°c 1009.0 hPa 72% 0.2mm
23/08:00am SE 10-15 kts 27.6°c 1008.9 hPa 74% 0.2mm
23/07:30am SE 8-11 kts 26.7°c 1008.8 hPa 79% 0.2mm
23/07:00am SSE 7-10 kts 26.6°c 1008.6 hPa 79% 0.2mm
23/06:30am SE 7-11 kts 26.3°c 1008.4 hPa 80% 0.2mm
23/06:00am SE 8-14 kts 26.0°c 1007.9 hPa 80% 0.2mm
23/05:30am SE 7-10 kts 25.9°c 1007.6 hPa 81% 0.2mm
23/05:00am SE 8-13 kts 25.8°c 1007.1 hPa 82% 0.2mm
23/04:30am SE 7-10 kts 25.9°c 1007.0 hPa 81% 0.2mm
23/04:00am SE 7-10 kts 26.0°c 1006.9 hPa 81% 0.2mm
23/03:30am SE 8-15 kts 26.4°c 1006.7 hPa 79% 0.2mm
23/03:00am SE 8-12 kts 26.3°c 1006.9 hPa 80% 0.2mm
23/02:30am SE 6-10 kts 26.2°c 1007.1 hPa 79% 0.2mm
23/02:00am SE 7-10 kts 26.3°c 1007.6 hPa 79% 0.2mm
23/01:30am SE 8-14 kts 26.5°c 1007.8 hPa 78% 0.2mm
23/01:00am SE 8-12 kts 26.6°c 1008.1 hPa 78% 0.2mm
23/12:30am SE 9-13 kts 26.7°c 1008.6 hPa 77% 0.2mm
23/12:00am SE 7-11 kts 26.8°c 1009.1 hPa 76% 0.2mm